Location: Observatory
(52.1446°N, 0.4624°W)
Time: 15:29:25
(UTC+01:00)

ISS - Pass Details

Date: 27 May 2020
Orbit: 417 x 420 km, 51.6° (Epoch: 25 May)

Event Time Altitude Azimuth Distance (km) Brightness Sun altitude
Rises 22:55:03 0° 282° (WNW) 2,368 0.7 -11.5°
Reaches altitude 10° 22:57:19 10° 271° (W) 1,502 -0.5 -11.7°
Maximum altitude 23:00:17 29° 209° (SSW) 794 -2.6 -11.9°
Enters shadow 23:01:48 20° 165° (SSE) 1,023 -2.4 -12.0°
